GALAXY 18

导读 | 星芒AI

GALAXY 18 是一颗由美国劳拉空间系统公司制造的通信卫星,于2005年发射,由Intelsat运营。该卫星位于西经177度轨道位置,主要服务于美洲、加勒比海和太平洋地区的固定卫星服务(FSS)和广播市场。GALAXY 18 提供C波段和Ku波段传输,广泛用于电视广播、企业通信和互联网接入。其高功率和先进设计使其成为北美地区重要的通信枢纽之一。

基本信息
目录编号:
32951
目录名称:
GALAXY 18
国际标识:
2008-024A
轨道中心:
EARTH
卫星名称:
GALAXY 18
卫星全名:
--
卫星状态:
在轨 (已飞行6415 天)
发射日期:
2008-05-21 UTC
国别 :
美国 (US)
星等 :
--
轨道信息
数据来源 国际轨道数据 AOE轨道数据
星历时间 2025-12-13T07:10:01+0800
10小时前
查看轨道信息
2025-12-12T16:00:00+0800
1天前
查看轨道信息
半长轴 42164.756km 42164.728km
偏心率 0.0002921 0.0002938
轨道倾角 0.001° 0.016°
近地点辐角 265.024° 301.156°
升交点赤经 2.441° 323.070°
平近点角 38.937° 174.049°
近地点 35774.304km 35774.205km
远地点 35798.938km 35798.981km
周期 1436.098分钟 1436.097分钟
每日圈数 1.002717 1.002718
详细信息
使用方式:
暂无
2D轨道图
3D轨道图
轨道高度分析图
轨道倾角分析图
轨道综合分析图
查看轨道综合分析图